Time,TemperatureF,DewpointF,PressureIn,WindDirection,WindDirectionDegrees,WindSpeedMPH,WindSpeedGustMPH,Humidity,HourlyPrecipIn,Conditions,Clouds,dailyrainin,SoftwareType,DateUTC
2013-12-01 00:12:00,26.0,24.0,30.12,North,5,1.0,2.0,92,0.00,,,0.00,,2013-12-01 06:12:00,
2013-12-01 00:22:00,25.0,23.0,30.12,NE,35,0.0,2.0,91,0.00,,,0.00,,2013-12-01 06:22:00,
2013-12-01 00:42:00,25.0,23.0,30.11,NE,35,0.0,2.0,91,0.00,,,0.00,,2013-12-01 06:42:00,
2013-12-01 00:52:00,24.0,22.0,30.11,NE,35,1.0,3.0,91,0.00,,,0.00,,2013-12-01 06:52:00,
2013-12-01 01:12:00,24.0,22.0,30.10,NE,35,0.0,2.0,91,0.00,,,0.00,,2013-12-01 07:12:00,
2013-12-01 01:22:00,23.0,21.0,30.10,NE,35,0.0,2.0,91,0.00,,,0.00,,2013-12-01 07:22:00,
2013-12-01 01:42:00,23.0,21.0,30.10,NE,35,0.0,1.0,91,0.00,,,0.00,,2013-12-01 07:42:00,
2013-12-01 01:52:00,23.0,21.0,30.10,NE,35,0.0,2.0,91,0.00,,,0.00,,2013-12-01 07:52:00,
2013-12-01 02:11:00,22.0,20.0,30.09,NE,35,0.0,2.0,91,0.00,,,0.00,,2013-12-01 08:11:00,
2013-12-01 02:22:00,22.0,20.0,30.09,NE,36,0.0,3.0,92,0.00,,,0.00,,2013-12-01 08:22:00,
2013-12-01 02:42:00,22.0,20.0,30.08,NE,40,1.0,3.0,92,0.00,,,0.00,,2013-12-01 08:42:00,
2013-12-01 02:52:00,22.0,20.0,30.07,NE,53,1.0,5.0,92,0.00,,,0.00,,2013-12-01 08:52:00,
2013-12-01 03:11:00,22.0,20.0,30.08,ESE,116,0.0,7.0,93,0.00,,,0.00,,2013-12-01 09:11:00,
2013-12-01 03:22:00,23.0,21.0,30.09,ESE,116,0.0,3.0,93,0.00,,,0.00,,2013-12-01 09:22:00,
2013-12-01 03:43:00,23.0,21.0,30.09,ESE,116,0.0,1.0,93,0.00,,,0.00,,2013-12-01 09:43:00,
2013-12-01 03:54:00,23.0,21.0,30.09,ESE,116,1.0,3.0,93,-99.99,,,-99.99,,2013-12-01 09:54:00,
2013-12-01 04:12:00,23.0,21.0,30.07,ESE,116,0.0,1.0,93,0.00,,,0.00,,2013-12-01 10:12:00,
2013-12-01 04:22:00,23.0,21.0,30.08,ESE,116,0.0,2.0,93,0.00,,,0.00,,2013-12-01 10:22:00,
2013-12-01 04:42:00,23.0,21.0,30.07,ESE,116,0.0,1.0,93,0.00,,,0.00,,2013-12-01 10:42:00,
2013-12-01 04:53:00,23.0,22.0,30.07,ESE,116,1.0,3.0,94,0.00,,,0.00,,2013-12-01 10:53:00,
2013-12-01 05:22:00,24.0,23.0,30.05,ESE,118,2.0,5.0,94,0.00,,,0.00,,2013-12-01 11:22:00,
2013-12-01 05:42:00,24.0,23.0,30.05,ESE,109,2.0,7.0,94,0.00,,,0.00,,2013-12-01 11:42:00,
2013-12-01 05:52:00,23.0,21.0,30.04,East,96,2.0,6.0,93,0.00,,,0.00,,2013-12-01 11:52:00,
2013-12-01 06:12:00,23.0,21.0,30.04,ESE,107,2.0,6.0,93,0.00,,,0.00,,2013-12-01 12:12:00,
2013-12-01 06:22:00,23.0,21.0,30.03,ESE,117,1.0,5.0,93,0.00,,,0.00,,2013-12-01 12:22:00,
2013-12-01 06:42:00,23.0,21.0,30.03,ENE,76,2.0,6.0,93,0.00,,,0.00,,2013-12-01 12:42:00,
2013-12-01 06:52:00,23.0,21.0,30.03,East,101,3.0,6.0,93,0.00,,,0.00,,2013-12-01 12:52:00,
2013-12-01 07:11:00,23.0,21.0,30.02,ESE,113,2.0,5.0,93,0.00,,,0.00,,2013-12-01 13:11:00,
2013-12-01 07:21:00,23.0,21.0,30.02,SE,128,2.0,7.0,93,0.00,,,0.00,,2013-12-01 13:21:00,
2013-12-01 07:42:00,23.0,21.0,30.01,ESE,123,3.0,5.0,93,0.00,,,0.00,,2013-12-01 13:42:00,
2013-12-01 07:52:00,23.0,21.0,30.00,ESE,116,3.0,6.0,92,0.00,,,0.00,,2013-12-01 13:52:00,
2013-12-01 08:12:00,22.0,20.0,29.99,ESE,111,3.0,8.0,92,0.00,,,0.00,,2013-12-01 14:12:00,
2013-12-01 08:22:00,22.0,20.0,29.99,SE,142,3.0,6.0,92,0.00,,,0.00,,2013-12-01 14:22:00,
2013-12-01 08:42:00,22.0,20.0,29.98,SE,141,3.0,8.0,92,0.00,,,0.00,,2013-12-01 14:42:00,
2013-12-01 08:52:00,22.0,20.0,29.98,ESE,111,2.0,4.0,92,0.00,,,0.00,,2013-12-01 14:52:00,
2013-12-01 09:22:00,23.0,21.0,29.96,ESE,106,1.0,5.0,93,0.00,,,0.00,,2013-12-01 15:22:00,
2013-12-01 09:43:00,23.0,21.0,29.96,ESE,123,3.0,5.0,93,0.00,,,0.00,,2013-12-01 15:43:00,
2013-12-01 09:53:00,24.0,22.0,29.96,East,101,3.0,7.0,93,0.00,,,0.00,,2013-12-01 15:53:00,
2013-12-01 10:13:00,24.0,22.0,29.95,ESE,123,2.0,7.0,93,0.00,,,0.00,,2013-12-01 16:13:00,
2013-12-01 10:23:00,25.0,23.0,29.95,ESE,109,2.0,5.0,93,0.00,,,0.00,,2013-12-01 16:23:00,
2013-12-01 10:43:00,26.0,24.0,29.94,ENE,71,2.0,8.0,93,0.00,,,0.00,,2013-12-01 16:43:00,
2013-12-01 10:52:00,27.0,25.0,29.93,SSE,148,4.0,9.0,93,0.00,,,0.00,,2013-12-01 16:52:00,
2013-12-01 11:12:00,29.0,27.0,29.92,SSE,150,2.0,7.0,93,0.00,,,0.00,,2013-12-01 17:12:00,
2013-12-01 11:22:00,30.0,28.0,29.91,ESE,123,3.0,8.0,92,0.00,,,0.00,,2013-12-01 17:22:00,
2013-12-01 11:42:00,31.0,29.0,29.91,East,101,2.0,7.0,92,0.00,,,0.00,,2013-12-01 17:42:00,
2013-12-01 11:52:00,32.0,30.0,29.90,SE,145,3.0,8.0,91,0.00,,,0.00,,2013-12-01 17:52:00,
2013-12-01 12:12:00,33.0,30.0,29.89,SSE,159,4.0,8.0,90,0.00,,,0.00,,2013-12-01 18:12:00,
2013-12-01 12:22:00,34.0,31.0,29.88,SSE,161,3.0,7.0,89,0.00,,,0.00,,2013-12-01 18:22:00,
2013-12-01 12:42:00,34.0,31.0,29.87,SE,146,4.0,8.0,90,0.00,,,0.00,,2013-12-01 18:42:00,
2013-12-01 12:52:00,34.0,32.0,29.86,SE,137,4.0,8.0,91,0.01,,,0.01,,2013-12-01 18:52:00,
2013-12-01 13:11:00,36.0,34.0,29.85,SSE,159,7.0,10.0,91,0.01,,,0.01,,2013-12-01 19:11:00,
2013-12-01 13:21:00,38.0,34.0,29.84,SE,138,5.0,10.0,87,0.01,,,0.01,,2013-12-01 19:21:00,
2013-12-01 13:42:00,38.0,33.0,29.83,SE,136,7.0,11.0,82,0.01,,,0.01,,2013-12-01 19:42:00,
2013-12-01 13:52:00,38.0,33.0,29.83,SSE,167,4.0,9.0,82,0.00,,,0.01,,2013-12-01 19:52:00,
2013-12-01 14:11:00,39.0,34.0,29.82,SSE,155,5.0,8.0,81,0.00,,,0.01,,2013-12-01 20:11:00,
2013-12-01 14:21:00,39.0,33.0,29.81,SSE,158,3.0,7.0,80,0.00,,,0.01,,2013-12-01 20:21:00,
2013-12-01 14:42:00,40.0,34.0,29.80,SSE,153,4.0,7.0,78,0.00,,,0.01,,2013-12-01 20:42:00,
2013-12-01 14:52:00,40.0,33.0,29.79,SSE,155,3.0,8.0,76,0.00,,,0.01,,2013-12-01 20:52:00,
2013-12-01 15:12:00,40.0,33.0,29.79,SSE,164,5.0,8.0,77,0.00,,,0.01,,2013-12-01 21:12:00,
2013-12-01 15:22:00,41.0,34.0,29.77,SE,130,2.0,7.0,75,0.00,,,0.01,,2013-12-01 21:22:00,
2013-12-01 15:42:00,42.0,34.0,29.76,SSE,152,3.0,8.0,73,0.00,,,0.01,,2013-12-01 21:42:00,
2013-12-01 15:53:00,42.0,34.0,29.77,SE,142,2.0,6.0,72,0.00,,,0.01,,2013-12-01 21:53:00,
2013-12-01 16:22:00,41.0,33.0,29.76,SE,135,1.0,3.0,72,0.00,,,0.01,,2013-12-01 22:22:00,
2013-12-01 16:42:00,40.0,32.0,29.76,SE,136,1.0,5.0,74,0.00,,,0.01,,2013-12-01 22:42:00,
2013-12-01 16:52:00,39.0,32.0,29.75,ESE,115,2.0,5.0,76,0.00,,,0.01,,2013-12-01 22:52:00,
2013-12-01 17:12:00,37.0,31.0,29.75,SE,127,1.0,4.0,78,0.00,,,0.01,,2013-12-01 23:12:00,
2013-12-01 17:22:00,36.0,30.0,29.75,SE,126,0.0,2.0,80,0.00,,,0.01,,2013-12-01 23:22:00,
2013-12-01 17:42:00,35.0,30.0,29.75,SE,126,0.0,2.0,83,0.00,,,0.01,,2013-12-01 23:42:00,
2013-12-01 17:52:00,34.0,30.0,29.75,SE,125,0.0,2.0,84,0.00,,,0.01,,2013-12-01 23:52:00,
2013-12-01 18:11:00,34.0,30.0,29.74,SE,124,0.0,2.0,85,0.00,,,0.01,,2013-12-02 00:11:00,
2013-12-01 18:21:00,34.0,30.0,29.74,ESE,119,0.0,1.0,85,0.00,,,0.01,,2013-12-02 00:21:00,
2013-12-01 18:42:00,34.0,30.0,29.73,ESE,107,1.0,3.0,86,0.00,,,0.01,,2013-12-02 00:42:00,
2013-12-01 18:52:00,34.0,31.0,29.73,ESE,107,0.0,1.0,87,0.00,,,0.01,,2013-12-02 00:52:00,
2013-12-01 19:11:00,34.0,31.0,29.72,ESE,113,2.0,4.0,87,0.00,,,0.01,,2013-12-02 01:11:00,
2013-12-01 19:21:00,34.0,30.0,29.72,East,99,2.0,6.0,86,0.00,,,0.01,,2013-12-02 01:21:00,
2013-12-01 19:42:00,34.0,30.0,29.72,ESE,113,1.0,5.0,86,0.00,,,0.01,,2013-12-02 01:42:00,
2013-12-01 19:52:00,34.0,30.0,29.71,ESE,104,1.0,4.0,86,0.00,,,0.01,,2013-12-02 01:52:00,
2013-12-01 20:11:00,33.0,29.0,29.70,ESE,103,1.0,3.0,86,0.00,,,0.01,,2013-12-02 02:11:00,
2013-12-01 20:21:00,33.0,30.0,29.70,East,99,0.0,2.0,87,0.00,,,0.01,,2013-12-02 02:21:00,
2013-12-01 20:52:00,33.0,30.0,29.69,ESE,110,1.0,3.0,87,0.00,,,0.01,,2013-12-02 02:52:00,
2013-12-01 21:11:00,33.0,30.0,29.69,East,90,1.0,5.0,87,0.00,,,0.01,,2013-12-02 03:11:00,
2013-12-01 21:22:00,32.0,29.0,29.69,ESE,106,1.0,4.0,87,0.00,,,0.01,,2013-12-02 03:22:00,
2013-12-01 21:43:00,32.0,29.0,29.68,East,95,1.0,2.0,88,0.00,,,0.01,,2013-12-02 03:43:00,
2013-12-01 21:54:00,32.0,29.0,29.68,East,94,0.0,3.0,88,0.00,,,0.01,,2013-12-02 03:54:00,
2013-12-01 22:13:00,32.0,29.0,29.68,East,88,0.0,2.0,88,0.00,,,0.01,,2013-12-02 04:13:00,
2013-12-01 22:43:00,32.0,29.0,29.67,ESE,107,0.0,3.0,89,0.00,,,0.01,,2013-12-02 04:43:00,
2013-12-01 22:53:00,32.0,29.0,29.67,East,96,0.0,3.0,89,0.00,,,0.01,,2013-12-02 04:53:00,
2013-12-01 23:12:00,32.0,29.0,29.66,East,85,1.0,3.0,90,0.00,,,0.01,,2013-12-02 05:12:00,
2013-12-01 23:23:00,32.0,30.0,29.65,East,83,1.0,3.0,91,0.00,,,0.01,,2013-12-02 05:23:00,
2013-12-01 23:43:00,32.0,30.0,29.65,East,81,1.0,2.0,91,0.00,,,0.01,,2013-12-02 05:43:00,
2013-12-01 23:53:00,32.0,30.0,29.64,ENE,75,0.0,3.0,92,0.00,,,0.01,,2013-12-02 05:53:00,